CTV668 WARR-WADD

Flight info

Callsign CTV668
Flight time 0h 39m
Altitude 25000
Route MOVMO
Aircraft A320/M-SDE2E3FGHIRWY/LB1

Departure

Time 2026-04-27 08:00
Airport Juanda International Airport (WARR)

Arrival

Time 2026-04-27 08:39
Airport Denpasar I Gusti Ngurah Rai International Airport (WADD)
Time Latitude Longitude Altitude Speed Heading
2026-04-27 07:49 -7.37558 112.79293 9 ft 0 kts
2026-04-27 07:53 -7.37559 112.79293 9 ft 2 kts
2026-04-27 07:53 -7.37584 112.79288 9 ft 4 kts 14°
2026-04-27 07:54 -7.37610 112.79281 10 ft 4 kts 22°
2026-04-27 07:54 -7.37634 112.79268 11 ft 4 kts 46°
2026-04-27 07:54 -7.37643 112.79251 10 ft 1 kts 99°
2026-04-27 07:54 -7.37643 112.79246 10 ft 0 kts 99°
2026-04-27 07:56 -7.37646 112.79269 10 ft 10 kts 99°
2026-04-27 07:56 -7.37660 112.79352 9 ft 12 kts 101°
2026-04-27 07:56 -7.37674 112.79426 9 ft 10 kts 103°
2026-04-27 07:57 -7.37726 112.79445 9 ft 8 kts 188°
2026-04-27 07:57 -7.37780 112.79435 9 ft 10 kts 190°
2026-04-27 07:57 -7.37857 112.79422 9 ft 13 kts 189°
2026-04-27 07:57 -7.37934 112.79462 9 ft 15 kts 106°
2026-04-27 07:58 -7.37953 112.79579 9 ft 18 kts 99°
2026-04-27 07:58 -7.37975 112.79718 9 ft 21 kts 99°
2026-04-27 07:58 -7.37997 112.79865 9 ft 23 kts 99°
2026-04-27 07:58 -7.38032 112.80018 9 ft 21 kts 130°
2026-04-27 07:59 -7.38128 112.80032 7 ft 14 kts 189°
2026-04-27 07:59 -7.38188 112.79951 7 ft 10 kts 282°
2026-04-27 07:59 -7.38144 112.79697 8 ft 73 kts 280°
2026-04-27 08:00 -7.38029 112.78980 10 ft 132 kts 279°
2026-04-27 08:00 -7.37860 112.77905 52 ft 174 kts 279°
2026-04-27 08:00 -7.37689 112.76734 766 ft 167 kts 280°
2026-04-27 08:00 -7.37501 112.75564 1357 ft 170 kts 279°
2026-04-27 08:01 -7.37301 112.74406 1677 ft 185 kts 280°
2026-04-27 08:01 -7.37062 112.73055 1942 ft 207 kts 280°
2026-04-27 08:01 -7.36799 112.71540 2204 ft 232 kts 279°
2026-04-27 08:01 -7.36511 112.69857 2569 ft 256 kts 279°
2026-04-27 08:02 -7.36202 112.68040 3164 ft 267 kts 279°
2026-04-27 08:02 -7.35815 112.66222 3920 ft 273 kts 291°
2026-04-27 08:02 -7.34737 112.64637 4672 ft 279 kts 319°
2026-04-27 08:02 -7.33048 112.63677 5439 ft 282 kts 345°
2026-04-27 08:03 -7.31102 112.63523 6220 ft 284 kts 10°
2026-04-27 08:03 -7.29268 112.64219 6958 ft 284 kts 36°
2026-04-27 08:03 -7.27909 112.65636 7697 ft 283 kts 61°
2026-04-27 08:03 -7.27131 112.67459 8488 ft 284 kts 70°
2026-04-27 08:04 -7.26428 112.69327 9264 ft 287 kts 70°
2026-04-27 08:04 -7.25718 112.71216 10006 ft 290 kts 70°
2026-04-27 08:04 -7.24990 112.73152 10415 ft 305 kts 70°
2026-04-27 08:04 -7.24209 112.75224 10564 ft 328 kts 70°
2026-04-27 08:05 -7.23378 112.77410 10972 ft 339 kts 70°
2026-04-27 08:05 -7.22524 112.79640 11584 ft 343 kts 70°
2026-04-27 08:05 -7.21667 112.81891 12234 ft 345 kts 72°
2026-04-27 08:05 -7.21145 112.84239 12873 ft 346 kts 86°
2026-04-27 08:06 -7.21209 112.86663 13514 ft 347 kts 99°
2026-04-27 08:06 -7.21570 112.88225 13889 ft 348 kts 108°
2026-04-27 08:06 -7.22976 112.91175 14613 ft 351 kts 119°
2026-04-27 08:06 -7.24176 112.93331 15142 ft 355 kts 119°
2026-04-27 08:07 -7.24827 112.94504 15417 ft 356 kts 119°
2026-04-27 08:07 -7.25989 112.96596 15900 ft 360 kts 119°
2026-04-27 08:07 -7.27214 112.98807 16405 ft 363 kts 118°
2026-04-27 08:07 -7.28446 113.01040 16903 ft 367 kts 118°
2026-04-27 08:08 -7.29687 113.03295 17395 ft 370 kts 118°
2026-04-27 08:08 -7.30933 113.05555 17890 ft 374 kts 118°
2026-04-27 08:08 -7.32091 113.07653 18286 ft 377 kts 118°
2026-04-27 08:08 -7.33372 113.09972 18722 ft 380 kts 118°
2026-04-27 08:09 -7.34639 113.12267 19151 ft 383 kts 118°
2026-04-27 08:09 -7.35956 113.14654 19590 ft 385 kts 118°
2026-04-27 08:09 -7.37350 113.16972 20028 ft 389 kts 125°
2026-04-27 08:09 -7.39107 113.19061 20467 ft 392 kts 131°
2026-04-27 08:10 -7.40945 113.21103 20893 ft 395 kts 131°
2026-04-27 08:10 -7.42776 113.23139 21313 ft 398 kts 131°
2026-04-27 08:10 -7.44615 113.25188 21728 ft 401 kts 131°
2026-04-27 08:10 -7.46509 113.27305 22157 ft 403 kts 131°
2026-04-27 08:11 -7.48360 113.29375 22550 ft 406 kts 131°
2026-04-27 08:11 -7.50225 113.31460 22935 ft 409 kts 131°
2026-04-27 08:11 -7.52134 113.33593 23320 ft 412 kts 131°
2026-04-27 08:11 -7.53948 113.35616 23625 ft 414 kts 131°
2026-04-27 08:12 -7.55884 113.37773 23950 ft 417 kts 131°
2026-04-27 08:12 -7.57834 113.39948 24270 ft 419 kts 131°
2026-04-27 08:12 -7.59793 113.42136 24582 ft 421 kts 131°
2026-04-27 08:12 -7.61758 113.44334 24770 ft 422 kts 131°
2026-04-27 08:13 -7.63712 113.46522 24820 ft 416 kts 130°
2026-04-27 08:13 -7.65641 113.48681 24826 ft 413 kts 130°
2026-04-27 08:13 -7.67560 113.50827 24834 ft 412 kts 130°
2026-04-27 08:13 -7.69477 113.52972 24829 ft 412 kts 130°
2026-04-27 08:14 -7.71385 113.55107 24833 ft 412 kts 130°
2026-04-27 08:14 -7.73314 113.57263 24830 ft 412 kts 130°
2026-04-27 08:14 -7.75231 113.59407 24846 ft 412 kts 130°
2026-04-27 08:14 -7.77147 113.61551 24840 ft 412 kts 130°
2026-04-27 08:15 -7.79066 113.63697 24841 ft 411 kts 130°
2026-04-27 08:15 -7.80982 113.65842 24845 ft 411 kts 130°
2026-04-27 08:15 -7.82895 113.67985 24843 ft 411 kts 130°
2026-04-27 08:15 -7.84804 113.70121 24842 ft 411 kts 130°
2026-04-27 08:16 -7.86720 113.72264 24846 ft 411 kts 130°
2026-04-27 08:16 -7.88632 113.74403 24849 ft 411 kts 130°
2026-04-27 08:16 -7.90543 113.76543 24846 ft 411 kts 130°
2026-04-27 08:16 -7.92449 113.78682 24856 ft 411 kts 130°
2026-04-27 08:17 -7.94359 113.80828 24844 ft 411 kts 130°
2026-04-27 08:17 -7.96269 113.82971 24855 ft 411 kts 130°
2026-04-27 08:17 -7.98176 113.85113 24860 ft 411 kts 130°
2026-04-27 08:17 -8.00211 113.87133 24859 ft 412 kts 140°
2026-04-27 08:18 -8.02613 113.88718 24852 ft 414 kts 151°
2026-04-27 08:18 -8.05218 113.89760 24860 ft 417 kts 162°
2026-04-27 08:18 -8.08071 113.90295 24850 ft 419 kts 171°
2026-04-27 08:18 -8.10971 113.90644 24854 ft 419 kts 171°
2026-04-27 08:19 -8.13868 113.91001 24846 ft 420 kts 171°
2026-04-27 08:19 -8.16766 113.91363 24846 ft 420 kts 171°
2026-04-27 08:19 -8.19662 113.91725 24845 ft 420 kts 171°
2026-04-27 08:19 -8.22561 113.92087 24843 ft 420 kts 171°
2026-04-27 08:20 -8.25422 113.92445 24839 ft 420 kts 171°
2026-04-27 08:20 -8.28322 113.92807 24845 ft 420 kts 171°
2026-04-27 08:20 -8.31226 113.93168 24842 ft 420 kts 171°
2026-04-27 08:20 -8.34128 113.93528 24842 ft 420 kts 171°
2026-04-27 08:21 -8.37032 113.93890 24838 ft 420 kts 171°
2026-04-27 08:21 -8.39910 113.94249 24650 ft 413 kts 171°
2026-04-27 08:21 -8.42738 113.94600 24428 ft 407 kts 170°
2026-04-27 08:21 -8.45533 113.94946 24205 ft 404 kts 170°
2026-04-27 08:22 -8.48320 113.95290 23985 ft 402 kts 170°
2026-04-27 08:22 -8.51094 113.95634 23761 ft 400 kts 170°
2026-04-27 08:22 -8.53848 113.95978 23544 ft 399 kts 169°
2026-04-27 08:22 -8.56512 113.96620 23206 ft 389 kts 155°
2026-04-27 08:23 -8.58867 113.97887 22728 ft 381 kts 141°
2026-04-27 08:23 -8.60798 113.99672 22264 ft 374 kts 128°
2026-04-27 08:23 -8.62231 114.01834 21790 ft 369 kts 115°
2026-04-27 08:23 -8.63150 114.04235 21324 ft 365 kts 107°
2026-04-27 08:24 -8.63950 114.06658 20856 ft 363 kts 107°
2026-04-27 08:24 -8.64760 114.09076 20374 ft 362 kts 108°
2026-04-27 08:24 -8.65570 114.11479 19892 ft 361 kts 108°
2026-04-27 08:24 -8.66378 114.13878 19398 ft 361 kts 108°
2026-04-27 08:25 -8.67183 114.16278 18927 ft 360 kts 108°
2026-04-27 08:25 -8.67986 114.18670 18450 ft 360 kts 108°
2026-04-27 08:25 -8.68789 114.21065 17947 ft 359 kts 108°
2026-04-27 08:25 -8.69587 114.23453 17458 ft 358 kts 108°
2026-04-27 08:26 -8.70380 114.25827 16986 ft 355 kts 108°
2026-04-27 08:26 -8.71157 114.28156 16522 ft 353 kts 108°
2026-04-27 08:26 -8.71941 114.30500 16067 ft 351 kts 108°
2026-04-27 08:26 -8.72721 114.32834 15614 ft 350 kts 108°
2026-04-27 08:27 -8.73498 114.35156 15163 ft 348 kts 108°
2026-04-27 08:27 -8.74275 114.37475 14713 ft 347 kts 108°
2026-04-27 08:27 -8.75047 114.39779 14255 ft 346 kts 108°
2026-04-27 08:27 -8.75814 114.42076 13809 ft 345 kts 108°
2026-04-27 08:28 -8.76581 114.44368 13312 ft 344 kts 108°
2026-04-27 08:28 -8.77345 114.46647 12846 ft 341 kts 108°
2026-04-27 08:28 -8.78102 114.48909 12385 ft 339 kts 108°
2026-04-27 08:28 -8.78852 114.51158 11928 ft 336 kts 108°
2026-04-27 08:29 -8.79594 114.53390 11461 ft 334 kts 108°
2026-04-27 08:29 -8.80330 114.55602 11013 ft 331 kts 108°
2026-04-27 08:29 -8.81061 114.57800 10630 ft 327 kts 108°
2026-04-27 08:29 -8.81782 114.59955 10299 ft 321 kts 108°
2026-04-27 08:30 -8.82482 114.62041 10163 ft 303 kts 108°
2026-04-27 08:30 -8.83139 114.64003 9854 ft 288 kts 108°
2026-04-27 08:30 -8.83771 114.65891 9508 ft 280 kts 108°
2026-04-27 08:30 -8.84207 114.67813 9393 ft 282 kts 94°
2026-04-27 08:31 -8.84094 114.69756 9101 ft 281 kts 78°
2026-04-27 08:31 -8.83445 114.71638 8734 ft 280 kts 68°
2026-04-27 08:31 -8.82686 114.73450 8365 ft 280 kts 68°
2026-04-27 08:31 -8.81937 114.75262 7999 ft 279 kts 68°
2026-04-27 08:32 -8.81194 114.77071 7626 ft 278 kts 68°
2026-04-27 08:32 -8.80456 114.78874 7257 ft 277 kts 68°
2026-04-27 08:32 -8.79722 114.80675 6891 ft 276 kts 68°
2026-04-27 08:32 -8.78993 114.82466 6519 ft 275 kts 68°
2026-04-27 08:33 -8.78272 114.84239 6151 ft 272 kts 68°
2026-04-27 08:33 -8.77560 114.85982 5777 ft 262 kts 68°
2026-04-27 08:33 -8.76876 114.87647 5429 ft 251 kts 68°
2026-04-27 08:33 -8.76221 114.89242 5100 ft 241 kts 68°
2026-04-27 08:34 -8.75624 114.90814 4781 ft 239 kts 76°
2026-04-27 08:34 -8.75436 114.92473 4459 ft 238 kts 89°
2026-04-27 08:34 -8.75425 114.94131 4202 ft 233 kts 89°
2026-04-27 08:34 -8.75407 114.95740 3836 ft 228 kts 89°
2026-04-27 08:35 -8.75386 114.97307 3554 ft 217 kts 89°
2026-04-27 08:35 -8.75362 114.98775 3385 ft 205 kts 89°
2026-04-27 08:35 -8.75338 115.00173 3134 ft 194 kts 89°
2026-04-27 08:35 -8.75315 115.01520 2820 ft 189 kts 90°
2026-04-27 08:36 -8.75293 115.02809 2523 ft 177 kts 89°
2026-04-27 08:36 -8.75272 115.04001 2253 ft 162 kts 89°
2026-04-27 08:36 -8.75252 115.05099 1966 ft 151 kts 90°
2026-04-27 08:36 -8.75233 115.06133 1741 ft 142 kts 90°
2026-04-27 08:37 -8.75216 115.07137 1642 ft 143 kts 89°
2026-04-27 08:37 -8.75195 115.08131 1453 ft 142 kts 90°
2026-04-27 08:37 -8.75172 115.09124 1277 ft 141 kts 89°
2026-04-27 08:37 -8.75150 115.10118 1093 ft 141 kts 90°
2026-04-27 08:38 -8.75128 115.11115 914 ft 143 kts 90°
2026-04-27 08:38 -8.75106 115.12108 728 ft 141 kts 91°
2026-04-27 08:38 -8.75041 115.13070 560 ft 143 kts 83°
2026-04-27 08:38 -8.74940 115.14056 380 ft 139 kts 90°
2026-04-27 08:39 -8.74909 115.15027 163 ft 138 kts 91°
2026-04-27 08:39 -8.74868 115.15978 35 ft 126 kts 94°
2026-04-27 08:39 -8.74848 115.16696 27 ft 77 kts 87°
2026-04-27 08:39 -8.74830 115.17076 28 ft 39 kts 88°
2026-04-27 08:40 -8.74819 115.17278 27 ft 20 kts 76°
2026-04-27 08:40 -8.74724 115.17314 30 ft 12 kts
2026-04-27 08:40 -8.74662 115.17302 32 ft 7 kts 303°
2026-04-27 08:40 -8.74657 115.17255 32 ft 6 kts 267°
2026-04-27 08:41 -8.74659 115.17215 32 ft 5 kts 267°
2026-04-27 08:41 -8.74660 115.17177 32 ft 8 kts 268°
2026-04-27 08:41 -8.74664 115.17092 32 ft 12 kts 268°
2026-04-27 08:41 -8.74666 115.17009 32 ft 11 kts 268°
2026-04-27 08:42 -8.74669 115.16935 30 ft 10 kts 267°
2026-04-27 08:42 -8.74672 115.16868 32 ft 9 kts 266°
2026-04-27 08:42 -8.74676 115.16795 32 ft 13 kts 268°
2026-04-27 08:42 -8.74680 115.16691 32 ft 15 kts 265°
2026-04-27 08:43 -8.74685 115.16587 32 ft 14 kts 268°
2026-04-27 08:43 -8.74687 115.16481 32 ft 16 kts 269°
2026-04-27 08:43 -8.74693 115.16372 33 ft 13 kts 266°
2026-04-27 08:43 -8.74696 115.16296 33 ft 7 kts 279°
2026-04-27 08:44 -8.74666 115.16277 33 ft 4 kts 352°
2026-04-27 08:44 -8.74640 115.16277 33 ft 3 kts 359°
2026-04-27 08:44 -8.74614 115.16276 33 ft 4 kts 358°
2026-04-27 08:44 -8.74584 115.16275 33 ft 4 kts 358°
2026-04-27 08:45 -8.74575 115.16275 33 ft 0 kts 358°